Tracking 29089 objects as of 12-Jul-2024
HD Live streaming from Space Station
objects crossing your sky now

STARLINK-3091

Track STARLINK-3091 now!
10-day predictions
STARLINK-3091 is classified as:


NORAD ID: 49172
Int'l Code: 2021-082AU
Perigee: 577.2 km
Apogee: 581.3 km
Inclination: 70.0 °
Period: 96.1 minutes
Semi major axis: 6950 km
RCS: Unknown
Launch date: September 14, 2021
Source: United States (US)
Launch site: AIR FORCE WESTERN TEST RANGE (AFWTR)
Your satellite tracking list
Your tracking list is empty




NASA's NSSDC Master Catalog

Two Line Element Set (TLE):
1 49172U 21082AU  24193.75434452  .00004561  00000-0  38996-3 0  9993
2 49172  70.0005   2.2252 0002896 271.6477  88.4351 14.98316128155709
Source of the keplerian elements: AFSPC